Orbital Elements at Epoch 2459200.5 (2020-Dec-17.0) TDB
Reference: JPL 19 (heliocentric ecliptic J2000)
Element | Value | Uncertainty (1-sigma) | Units |
e | .2176270361837898 | 5.0297e-08 | |
a | 2.642115031475452 | 2.0589e-08 | au |
q | 2.067119367918809 | 1.2989e-07 | au |
i | 12.2679656024172 | 6.8849e-06 | deg |
node | 245.9283184573302 | 2.763e-05 | deg |
peri | 247.5629643869507 | 3.329e-05 | deg |
M | 172.9630338568049 | 1.684e-05 | deg |
tp | 2458446.837679292552 (2018-Nov-24.33767929) | 7.2368e-05 | TDB |
period | 1568.649840400603 4.29 | 1.8336e-05 5.02e-08 | d yr |
n | .2294967243346437 | 2.6826e-09 | deg/d |
Q | 3.217110695032095 | 2.507e-08 | au |
|
| | Orbit Determination Parameters
Additional Information
|